Weather History for PABT - June, 2013

Change the Weather History Date:

Saturday, June 15, 2013

  Actual Average Record
Temperature  
Mean Temperature 65 °F -  
Max Temperature 72 °F 68 °F - (-1)
Min Temperature 57 °F 49 °F - (-1)
Growing Degree Days 15 (Base 50)    
Moisture  
Dew Point 46 °F    
Average Humidity 47    
Maximum Humidity 65    
Minimum Humidity 33    
Precipitation  
Precipitation 0.00 in - - ()
Sea Level Pressure  
Sea Level Pressure 30.18 in    
Wind  
Wind Speed 6 mph (SSW)    
Max Wind Speed 9 mph    
Max Gust Speed -    
Visibility 10 miles    
Events Rain    
Averages and records for this station are not official NWS values.
T = Trace of Precipitation, MM = Missing Value Source: NWS Daily Summary

Daily Weather History Graph

Daily Weather History Graph

Search for Another Location

Airport or City:

Trip Planner

Search our weather history database for the weather conditions in past years. The results will help you decide how hot, cold, wet, or windy it might be!

Date:

Astronomy

Jun. 15, 2013 Rise Set
Actual Time 2:39 AM AKDT 1:34 AM AKDT
Civil Twilight Sun does not set Sun does not set
Nautical Twilight Sun does not set Sun does not set
Astronomical Twilight Sun does not set Sun does not set
Moon 1:11 PM AKDT (6/15) 1:40 AM AKDT (6/15)
Length of Visible Light 24h 00m
Length of Day
22h 55m
Waxing Crescent, 41% of the Moon is Illuminated
Jun 15
Waxing Crescent
Jun 16
First Quarter
Jun 23
Full
Jun 29
Last Quarter
Jul 7
New

Hourly Weather History & Observations

Time (AKDT) Temp. Dew Point Humidity Pressure Visibility Wind Dir Wind Speed Gust Speed Precip Events Conditions
12:53 AM 62.1 °F 46.9 °F 58% 30.12 in 10.0 mi SE 5.8 mph - N/A   Overcast
1:53 AM 63.0 °F 39.9 °F 43% 30.13 in 10.0 mi SSE 5.8 mph - N/A   Mostly Cloudy
2:53 AM 59.0 °F 42.1 °F 53% 30.14 in 10.0 mi Calm Calm - N/A   Overcast
3:53 AM 60.1 °F 41.0 °F 49% 30.14 in 10.0 mi SE 5.8 mph - N/A   Overcast
4:53 AM 59.0 °F 42.1 °F 53% 30.16 in 10.0 mi SE 5.8 mph - N/A   Overcast
5:53 AM 59.0 °F 44.1 °F 58% 30.17 in 10.0 mi ESE 4.6 mph - N/A   Overcast
6:53 AM 60.1 °F 46.0 °F 60% 30.19 in 10.0 mi SE 6.9 mph - N/A   Overcast
7:53 AM 61.0 °F 46.9 °F 60% 30.19 in 10.0 mi SSE 6.9 mph - N/A   Overcast
8:53 AM 63.0 °F 48.9 °F 60% 30.19 in 10.0 mi South 4.6 mph - N/A   Overcast
9:53 AM 66.0 °F 46.9 °F 50% 30.19 in 10.0 mi SSW 9.2 mph - N/A   Overcast
10:53 AM 69.1 °F 46.0 °F 44% 30.19 in 10.0 mi SW 6.9 mph - N/A   Overcast
11:53 AM 70.0 °F 46.0 °F 42% 30.19 in 10.0 mi SW 9.2 mph - N/A   Overcast
12:53 PM 68.0 °F 45.0 °F 43% 30.20 in 10.0 mi Variable 5.8 mph - 0.00 in   Overcast
1:53 PM 69.1 °F 46.0 °F 44% 30.20 in 10.0 mi SW 8.1 mph - 0.00 in Rain Light Rain
2:53 PM 70.0 °F 45.0 °F 41% 30.20 in 10.0 mi WSW 6.9 mph - 0.00 in Rain Light Rain
3:53 PM 70.0 °F 46.9 °F 44% 30.20 in 10.0 mi Variable 6.9 mph - 0.00 in   Overcast
4:53 PM 71.1 °F 46.9 °F 42% 30.19 in 10.0 mi Calm Calm - N/A   Overcast
5:53 PM 71.1 °F 46.0 °F 41% 30.18 in 10.0 mi SW 6.9 mph - N/A   Overcast
6:53 PM 71.1 °F 46.9 °F 42% 30.17 in 10.0 mi Variable 4.6 mph - N/A   Overcast
7:53 PM 71.1 °F 46.0 °F 41% 30.17 in 10.0 mi WSW 5.8 mph - N/A   Overcast
8:53 PM 71.1 °F 46.0 °F 41% 30.17 in 10.0 mi WSW 8.1 mph - N/A   Overcast
9:53 PM 70.0 °F 46.9 °F 44% 30.17 in 10.0 mi WSW 3.5 mph - N/A   Mostly Cloudy
10:53 PM 68.0 °F 48.9 °F 50% 30.18 in 10.0 mi NW 3.5 mph - N/A   Mostly Cloudy
11:53 PM 64.0 °F 52.0 °F 65% 30.19 in 10.0 mi Calm Calm - N/A   Mostly Cloudy